7 * 24
多渠道服务支持
目前公开可查询的Starlink卫星公开目录中,暂未收录NORAD编号为100022、编号为STARLINK-38103的卫星的具体参数。结合现有星链项目背景可提供参考说明: Starlink是SpaceX打造的低轨通信星座,目前已部署超万颗卫星,提供全球低延迟宽带网络服务。当前最新的第三代星链卫星单星质量约2000公斤,运行于323-477公里的甚低地球轨道,单星下行容量达1Tbps,搭载激光星间链路与氩霍尔推进器,可自主完成轨道维持与避障机动。若该卫星为星链星座成员,将承担全球偏远地区网络覆盖、应急通信支撑等功能,服务于消费级互联网接入、航空航海通信等场景。
美国
(US)
| 数据来源 | 国际轨道数据 |
| 星历时间: | 2026-07-28T03:28:38+0800 1天前 查看轨道信息 |
| 半长轴: | 6712.458km |
| 偏心率: | 0.0003942 |
| 轨道倾角: | 69.999° |
| 近地点辐角 | 275.735° |
| 升交点赤经 | 349.721° |
| 平近点角 | 84.340° |
| 近地点: | 331.674km |
| 远地点: | 336.968km |
| 周期: | 91.218分钟 |
| 每日圈数: | 15.786304 |